Waarnemingen

Advertentie
Mijn weer
Finisterre, Spanje (8040): temperatuur & dauwpunt: 14.01.2021 20:00:00 - 20.01.2021 20:00:00 (CET)Finisterre, Spanje (8040): windsnelheid & windstoten: 14.01.2021 20:00:00 - 20.01.2021 20:00:00 (CET)Finisterre, Spanje (8040): windrichting: 14.01.2021 20:00:00 - 20.01.2021 20:00:00 (CET)Finisterre, Spanje (8040): luchtdruk: 14.01.2021 20:00:00 - 20.01.2021 20:00:00 (CET)Finisterre, Spanje (8040): zicht: 14.01.2021 20:00:00 - 20.01.2021 20:00:00 (CET)Finisterre, Spanje (8040): Zonneschijnduur: 14.01.2021 20:00:00 - 20.01.2021 20:00:00 (CET)Finisterre, Spanje (8040): neerslag: 14.01.2021 20:00:00 - 20.01.2021 20:00:00 (CET)
Datum & Tijd tt [°C] td [°C] ff [km/u] ff [kn] fx [km/u] fx [kn] dd ppp [hPa] vv [km] sd [min] rr [mm]
20.01.2021 20:00:00 - - - - - - - - - - -
20.01.2021 19:00:00 11,1 10,5 50 27 63 34 W 1000,9 7 0 -
20.01.2021 18:00:00 11,4 10,6 49 26 62 34 W 999,7 4,8 11 0,0
20.01.2021 17:00:00 11,4 10,4 48 26 73 40 W 998,9 5 42 0,0
20.01.2021 16:00:00 11,3 10,6 48 26 80 43 W 998,2 7 0 0,6
20.01.2021 15:00:00 11,4 10,6 54 29 84 45 W 997,5 1,7 13 0,2
20.01.2021 14:00:00 11,9 11,3 54 29 82 44 WZW 997,3 4,6 7 0,2
20.01.2021 13:00:00 11,9 11,4 57 31 79 43 WZW 997,2 4,9 0 -
20.01.2021 12:00:00 - - - - - - - - - - -
20.01.2021 11:00:00 - - - - - - - - - - -
20.01.2021 10:00:00 11,3 10,9 66 35 98 53 WZW 995,0 1,3 0 3,2
20.01.2021 09:00:00 11,4 11,0 68 37 91 49 ZW 994,9 2,5 0 2,0
20.01.2021 08:00:00 11,4 11,0 71 38 125 68 ZW 995,0 1,9 0 1,6
20.01.2021 07:00:00 11,6 11,1 58 31 98 53 ZZW 995,3 0,2 0 -
20.01.2021 06:00:00 11,2 10,8 56 31 94 51 ZZW 996,5 0,9 0 0,6
20.01.2021 05:00:00 10,7 10,3 56 30 106 57 ZZW 996,6 0,9 0 4,2
20.01.2021 04:00:00 10,8 10,3 46 25 100 54 Z 996,9 0,2 0 4,0
20.01.2021 03:00:00 10,5 10,0 46 25 101 55 Z 998,4 0,1 0 7,8
20.01.2021 02:00:00 10,2 9,8 60 33 116 63 Z 999,3 0,6 0 2,0
20.01.2021 01:00:00 9,9 9,4 61 33 124 67 Z 1000,2 1,1 0 -
20.01.2021 00:00:00 10,0 9,6 58 32 114 61 Z 1001,5 0,9 0 1,6
19.01.2021 23:00:00 10,2 9,8 59 32 111 60 Z 1002,7 1,3 0 1,4
19.01.2021 22:00:00 10,0 9,6 58 31 109 59 Z 1003,6 1,1 0 1,4
19.01.2021 21:00:00 10,1 9,4 53 28 108 59 Z 1005,2 0,9 0 1,4
19.01.2021 20:00:00 10,2 9,6 55 30 104 56 Z 1006,4 1,0 0 1,0
19.01.2021 19:00:00 10,2 9,6 48 26 104 56 Z 1007,6 0,4 0 -
19.01.2021 18:00:00 10,3 9,7 46 25 99 54 ZZW 1008,7 0,4 0 0,8
19.01.2021 17:00:00 10,2 9,6 49 26 101 54 Z 1009,7 2,3 0 0,4
19.01.2021 16:00:00 10,0 9,4 48 26 95 51 Z 1010,7 0,3 0 3,0
19.01.2021 15:00:00 10,0 9,2 43 23 82 44 Z 1012,4 2,0 0 0,2
19.01.2021 14:00:00 9,9 8,9 44 24 86 47 Z 1013,3 2,1 0 0,0
19.01.2021 13:00:00 9,9 8,7 45 24 81 44 Z 1014,4 2,3 0 -
19.01.2021 12:00:00 10,4 9,0 42 23 72 39 Z 1016,2 3,3 0 0,0
19.01.2021 11:00:00 10,2 8,7 39 21 69 38 Z 1016,8 3,7 0 0,0
19.01.2021 10:00:00 10,0 8,7 39 21 68 37 Z 1016,7 3,7 0 0,0
19.01.2021 09:00:00 9,9 8,4 38 21 72 39 Z 1017,1 3,3 0 0,0
19.01.2021 08:00:00 10,3 8,4 35 19 58 31 Z 1017,8 3,0 0 0,0
19.01.2021 07:00:00 10,2 7,3 32 18 58 32 ZZW 1018,5 10 0 -
19.01.2021 06:00:00 9,8 7,3 36 20 60 33 ZZW 1019,0 12 0 0,0
19.01.2021 05:00:00 9,6 7,8 40 22 61 33 ZZW 1019,9 8 0 0,0
19.01.2021 04:00:00 9,6 7,7 48 26 64 35 ZW 1020,6 6 0 0,0
19.01.2021 03:00:00 9,5 7,8 26 14 52 28 ZZW 1020,9 5 0 0,0
19.01.2021 02:00:00 9,3 7,6 39 21 52 28 ZZW 1022,2 7 0 0,0
19.01.2021 01:00:00 9,5 8,1 24 13 42 23 Z 1022,5 3,7 0 -
19.01.2021 00:00:00 9,7 8,3 20 11 35 19 Z 1023,5 4,7 0 0,0
18.01.2021 23:00:00 9,6 8,0 16 9 27 14 ZZW 1023,8 12 0 0,0
18.01.2021 22:00:00 9,5 7,8 16 9 25 14 Z 1023,7 8 0 0,0
18.01.2021 21:00:00 9,8 8,3 11 6 21 11 Z 1024,5 11 0 0,0
18.01.2021 20:00:00 9,3 7,3 8 4 9 5 ZW 1024,7 9 0 0,0
18.01.2021 19:00:00 9,8 7,6 4 2 10 5 W 1024,6 11 12 -
18.01.2021 18:00:00 12,0 8,8 6 3 15 8 ZZW 1024,3 9 57 0,0
18.01.2021 17:00:00 12,7 8,9 7 4 13 7 ZZO 1024,2 11 57 0,0
18.01.2021 16:00:00 12,5 8,9 6 4 14 7 ZZW 1024,7 11 60 0,0
18.01.2021 15:00:00 12,8 8,7 9 5 16 9 Z 1025,0 12 60 0,0
18.01.2021 14:00:00 13,3 8,9 4 2 13 7 Z 1025,7 11 56 0,0
18.01.2021 13:00:00 12,9 8,4 7 4 11 6 Z 1026,6 11 59 -
18.01.2021 12:00:00 12,0 8,3 6 3 13 7 Z 1027,4 8 47 0,0
18.01.2021 11:00:00 10,6 7,3 3 1 7 4 W 1027,6 14 47 0,0
18.01.2021 10:00:00 9,6 6,8 8 4 10 5 W 1027,4 15 50 0,0
18.01.2021 09:00:00 9,5 6,7 7 4 11 6 ZZO 1027,2 14 0 0,0
18.01.2021 08:00:00 9,2 6,8 10 6 28 15 OZO 1027,3 15 0 0,0
18.01.2021 07:00:00 9,1 7,3 21 11 31 17 O 1027,2 9 0 -
18.01.2021 06:00:00 9,3 7,6 22 12 28 15 NO 1027,3 8 0 0,0
18.01.2021 05:00:00 9,6 7,7 19 10 30 16 NO 1027,8 12 0 0,0
18.01.2021 04:00:00 9,7 8,0 19 10 27 15 NO 1028,3 13 0 0,0
18.01.2021 03:00:00 10,0 8,3 17 9 28 15 NO 1028,5 13 0 0,0
18.01.2021 02:00:00 10,4 8,0 17 9 32 17 NO 1029,0 13 0 0,2
18.01.2021 01:00:00 10,3 8,5 15 8 24 13 ONO 1029,6 15 0 -
18.01.2021 00:00:00 10,8 8,5 16 9 25 14 NO 1030,0 16 0 0,0
17.01.2021 23:00:00 10,8 8,8 14 8 23 13 NO 1029,8 13 0 0,0
17.01.2021 22:00:00 11,1 8,0 11 6 19 10 NO 1029,9 14 0 0,0
17.01.2021 21:00:00 11,2 8,1 13 7 24 13 NO 1030,4 8 0 0,0
17.01.2021 20:00:00 11,2 8,1 15 8 22 12 NO 1030,6 16 0 0,0
17.01.2021 19:00:00 11,1 8,7 13 7 20 11 NNO 1030,5 9 0 -
17.01.2021 18:00:00 11,3 9,0 13 7 18 10 N 1030,4 12 0 0,0
17.01.2021 17:00:00 11,2 9,7 14 7 19 11 NNO 1030,2 6 14 0,0
17.01.2021 16:00:00 11,6 9,7 11 6 21 11 N 1030,0 3,8 0 0,0
17.01.2021 15:00:00 11,3 9,9 9 5 11 6 NNO 1030,4 12 0 0,0
17.01.2021 14:00:00 12,0 9,6 4 2 15 8 NNW 1030,8 9 0 0,0
17.01.2021 13:00:00 12,0 9,2 7 4 18 10 N 1031,6 16 0 -
17.01.2021 12:00:00 12,2 10,0 4 2 12 7 W 1032,1 9 4 0,0
17.01.2021 11:00:00 11,2 8,9 7 4 15 8 N 1032,0 15 0 0,0
17.01.2021 10:00:00 10,8 9,0 6 3 22 12 WNW 1031,6 11 0 0,0
17.01.2021 09:00:00 10,7 8,8 6 3 18 10 NW 1031,1 12 0 0,0
17.01.2021 08:00:00 10,8 8,8 13 7 24 13 WNW 1030,7 15 0 0,0
17.01.2021 07:00:00 10,8 8,8 15 8 22 12 NW 1030,2 11 0 -
17.01.2021 06:00:00 10,6 8,7 10 6 24 13 NW 1030,4 13 0 0,0
17.01.2021 05:00:00 10,4 8,7 8 5 14 8 NNW 1030,6 13 0 0,0
17.01.2021 04:00:00 10,2 8,8 7 4 14 8 WNW 1030,6 12 0 0,0
17.01.2021 03:00:00 10,0 8,8 8 4 16 9 WNW 1030,5 12 0 0,0
17.01.2021 02:00:00 9,8 8,7 6 3 14 8 W - - 0 0,0
17.01.2021 01:00:00 10,0 8,9 6 4 14 8 ZZW 1030,9 0,1 0 -
17.01.2021 00:00:00 10,1 9,0 5 3 16 8 W 1031,1 8 0 0,0
16.01.2021 23:00:00 10,2 9,1 9 5 14 8 W - - 0 0,0
16.01.2021 22:00:00 10,3 9,1 7 4 13 7 W - - 0 0,0
16.01.2021 21:00:00 10,3 8,9 3 2 6 4 W 1031,0 6 0 0,0
16.01.2021 20:00:00 10,1 8,7 2 1 11 6 WZW 1031,0 12 0 0,0
16.01.2021 19:00:00 9,8 8,3 3 2 10 6 Z 1030,8 2,5 0 -
16.01.2021 18:00:00 10,1 8,4 6 3 11 6 ZW 1030,6 6 0 0,0
16.01.2021 17:00:00 10,4 8,5 5 3 11 6 W 1030,1 16 1 0,0
16.01.2021 16:00:00 10,3 8,3 4 2 10 5 WNW 1030,0 13 0 0,0
16.01.2021 15:00:00 10,4 8,4 6 3 12 7 W 1030,2 10 0 0,0
16.01.2021 14:00:00 10,3 8,1 5 3 12 7 WZW 1030,3 8 0 0,0
16.01.2021 13:00:00 10,2 7,8 4 2 16 9 ZZW 1030,7 11 30 -
16.01.2021 12:00:00 9,1 6,5 8 5 11 6 Z 1031,1 8 3 0,0
16.01.2021 11:00:00 9,1 6,7 6 4 11 6 ZZW 1030,8 11 30 0,0
16.01.2021 10:00:00 8,3 6,1 6 3 12 6 ZZW 1030,4 14 48 0,0
16.01.2021 09:00:00 7,8 5,3 6 3 8 5 ZW 1030,3 14 0 0,0
16.01.2021 08:00:00 7,4 4,8 7 4 10 5 Z 1030,2 15 0 0,0
16.01.2021 07:00:00 7,4 5,1 8 4 10 6 Z 1030,1 14 0 -
16.01.2021 06:00:00 7,5 5,5 7 4 8 4 Z 1030,3 12 0 0,0
16.01.2021 05:00:00 7,4 5,1 6 3 11 6 W 1030,6 13 0 0,0
16.01.2021 04:00:00 7,2 4,6 9 5 11 6 W 1030,5 12 0 0,0
16.01.2021 03:00:00 7,5 4,5 3 2 12 6 W 1030,2 9 0 0,0
16.01.2021 02:00:00 8,0 4,3 9 5 14 7 NO 1030,5 16 0 0,0
16.01.2021 01:00:00 7,5 3,6 12 7 16 9 NNO 1031,0 15 0 -
16.01.2021 00:00:00 7,6 3,6 9 5 10 6 NNO 1031,2 13 0 0,0
15.01.2021 23:00:00 8,0 4,5 5 3 16 8 WZW 1030,8 10 0 0,0
15.01.2021 22:00:00 8,1 4,1 15 8 28 15 ONO 1030,5 15 0 0,0
15.01.2021 21:00:00 8,2 4,8 20 11 31 17 NO 1030,3 13 0 0,0
15.01.2021 20:00:00 8,4 4,8 24 13 30 16 NO 1030,4 14 0 0,0
15.01.2021 19:00:00 8,9 5,8 21 12 28 15 NNO 1030,4 10 13 -
15.01.2021 18:00:00 9,6 5,9 13 7 21 12 NNO 1029,9 8 56 0,0
15.01.2021 17:00:00 10,3 6,7 14 7 22 12 N 1029,7 9 56 0,0
15.01.2021 16:00:00 10,4 6,4 16 9 26 14 N 1029,8 10 60 0,0
15.01.2021 15:00:00 10,5 7,0 13 7 27 15 N 1030,2 13 60 0,0
15.01.2021 14:00:00 10,7 7,4 13 7 20 11 N 1030,7 9 55 0,0
15.01.2021 13:00:00 10,8 7,4 11 6 16 9 NO 1031,3 12 60 -
15.01.2021 12:00:00 10,5 7,4 9 5 15 8 NO 1031,9 7 47 0,0
15.01.2021 11:00:00 9,6 7,0 9 5 14 8 NNO 1031,5 19 43 0,0
15.01.2021 10:00:00 9,0 7,3 11 6 16 8 ONO 1030,8 15 38 0,0
15.01.2021 09:00:00 8,5 7,0 11 6 22 12 ONO 1030,7 15 0 0,0
15.01.2021 08:00:00 9,0 7,7 17 9 23 13 NO 1030,5 13 0 0,0
15.01.2021 07:00:00 9,0 8,0 14 8 18 10 NNO 1030,4 10 0 -
15.01.2021 06:00:00 9,5 8,4 1 1 8 4 NO 1030,4 12 0 0,0
15.01.2021 05:00:00 9,7 8,7 3 1 6 3 NNO 1030,6 15 0 0,0
15.01.2021 04:00:00 9,9 8,8 5 3 9 5 NO - - 0 0,0
15.01.2021 03:00:00 9,9 8,5 5 3 8 4 ZZO 1030,6 0,2 0 0,4
15.01.2021 02:00:00 9,9 8,5 4 2 7 4 ZZW 1031,1 5 0 0,0
15.01.2021 01:00:00 9,9 8,5 5 3 9 5 Z 1031,3 4,7 0 -
15.01.2021 00:00:00 9,9 8,4 5 3 10 5 Z 1031,3 9 0 0,0
14.01.2021 23:00:00 9,9 8,1 4 2 8 4 ZZW 1031,4 10 0 0,0
14.01.2021 22:00:00 10,0 8,4 3 1 7 4 ONO 1030,9 13 0 0,0
14.01.2021 21:00:00 9,7 8,1 4 2 9 5 OZO 1030,8 12 0 0,0
14.01.2021 20:00:00 9,4 7,7 4 2 9 5 Z 1030,9 7 0 0,0

tt = temperatuur
td = dauwpunt
ff = windsnelheid
fx = windstoten
dd = windrichting
ppp = luchtdruk
vv = zicht
sd = Zonneschijnduur
rr = neerslag

Weerstations in de omgeving